Stations météo

Publicité
Ajaccio, France (7761): Température de l'air & dewpoint: 18.01.2019 12:00:00 - 24.01.2019 12:00:00 (CET)Ajaccio, France (7761): Température de l'air 5cm: 18.01.2019 12:00:00 - 24.01.2019 12:00:00 (CET)Ajaccio, France (7761): Température de l'air -20cm & Température de l'air -100cm: 18.01.2019 12:00:00 - 24.01.2019 12:00:00 (CET)Ajaccio, France (7761): Vitesse du vent & gusts: 18.01.2019 12:00:00 - 24.01.2019 12:00:00 (CET)Ajaccio, France (7761): Direction du vent: 18.01.2019 12:00:00 - 24.01.2019 12:00:00 (CET)Ajaccio, France (7761): reduced air pressure: 18.01.2019 12:00:00 - 24.01.2019 12:00:00 (CET)Ajaccio, France (7761): visibility: 18.01.2019 12:00:00 - 24.01.2019 12:00:00 (CET)Ajaccio, France (7761): Quantités de précipitations: 18.01.2019 12:00:00 - 24.01.2019 12:00:00 (CET)
Date & Time tt [°C] td [°C] tt 5cm [°C] tt -20cm [°C] tt -100cm [°C] ff [km/h] ff [knt] fx [km/h] fx [knt] dd ppp [hPa] vv [km] rr [mm]
24.01.2019 12:00:00 - - - - - - - - - - - - -
24.01.2019 11:00:00 9,9 4,1 6,2 8,6 12,2 14 8 39 21 NNE 988,5 60 0,0
24.01.2019 10:00:00 6,5 3,8 4,1 8,6 12,2 10 5 25 13 WNW 988,2 57 0,2
24.01.2019 09:00:00 4,5 2,8 3,3 8,6 12,2 7 4 11 6 SE 987,5 37 0,4
24.01.2019 08:00:00 4,1 2,3 2,3 8,7 12,2 9 5 14 7 NNE 987,7 26 0,0
24.01.2019 07:00:00 3,0 1,4 1,8 8,7 12,2 9 5 16 9 NNE 986,6 60 0,0
24.01.2019 06:00:00 2,5 1,2 1,6 8,7 12,2 7 4 15 8 NE 985,8 60 0,0
24.01.2019 05:00:00 2,2 0,7 1,0 8,8 12,2 10 6 16 8 NNE 985,7 60 0,0
24.01.2019 04:00:00 2,4 0,9 0,7 8,8 12,2 10 6 18 10 NNE 986,1 60 0,0
24.01.2019 03:00:00 1,8 0,3 0,7 8,9 12,2 11 6 16 9 NE 986,4 48 0,0
24.01.2019 02:00:00 2,3 0,8 0,4 8,9 12,2 10 5 14 7 ENE 986,4 45 0,0
24.01.2019 01:00:00 2,6 1,1 1,4 8,9 12,2 11 6 20 11 NE 986,5 41 0,0
24.01.2019 00:00:00 3,0 1,4 1,9 8,9 12,2 8 4 17 9 ENE 987,2 27 0,0
23.01.2019 23:00:00 3,7 2,1 2,5 8,9 12,2 5 3 20 11 ENE 987,6 40 0,0
23.01.2019 22:00:00 4,0 2,5 3,1 9,0 12,2 9 5 17 9 NNE 988,0 44 0,2
23.01.2019 21:00:00 4,4 2,7 3,3 9,0 12,2 8 5 14 7 NE 988,8 40 0,4
23.01.2019 20:00:00 3,9 2,3 2,9 9,0 12,2 7 4 17 9 NE 989,5 11 1,4
23.01.2019 19:00:00 3,6 2,0 2,7 9,0 12,2 10 5 21 12 NNE 990,0 42 0,2
23.01.2019 18:00:00 3,4 1,8 2,7 9,0 12,2 15 8 23 12 NNE 990,8 13 2,0
23.01.2019 17:00:00 3,5 1,7 2,9 9,0 12,2 11 6 23 12 NE 991,9 7 1,4
23.01.2019 16:00:00 4,9 3,1 4,3 9,0 12,2 11 6 19 10 E 993,0 7 3,9
23.01.2019 15:00:00 6,4 3,7 5,2 9,0 12,2 2 1 18 10 ENE 993,7 4,3 4,0
23.01.2019 14:00:00 8,0 4,0 7,6 9,1 12,2 4 2 12 6 N 994,0 33 0,0
23.01.2019 13:00:00 8,4 3,6 9,6 9,1 12,2 6 3 15 8 NE 995,3 52 0,0
23.01.2019 12:00:00 6,4 4,4 5,0 9,2 12,2 7 4 18 10 ENE 996,4 60 0,0
23.01.2019 11:00:00 5,2 3,7 4,4 9,2 12,2 6 3 21 12 ENE 996,9 18 1,0
23.01.2019 10:00:00 5,0 3,2 4,2 9,3 12,2 9 5 22 12 NE 996,8 4,6 2,0
23.01.2019 09:00:00 4,8 3,1 3,7 9,3 12,2 12 7 16 9 NNE 997,0 16 1,8
23.01.2019 08:00:00 4,5 2,5 3,1 9,4 12,2 8 4 17 9 NNE 997,6 12 0,4
23.01.2019 07:00:00 4,0 1,9 3,1 9,4 12,2 8 4 11 6 NNE 997,9 12 0,4
23.01.2019 06:00:00 4,0 1,4 2,0 9,5 12,2 3 2 18 10 ENE 998,5 22 0,0
23.01.2019 05:00:00 3,7 1,6 1,8 9,5 12,2 13 7 19 10 NNE 999,1 51 0,0
23.01.2019 04:00:00 3,8 1,7 1,8 9,5 12,2 9 5 21 11 NNE 999,9 47 0,0
23.01.2019 03:00:00 4,7 1,7 1,9 9,6 12,2 10 5 18 10 NNE 1001,1 41 0,0
23.01.2019 02:00:00 4,9 2,3 2,6 9,6 12,2 8 4 20 11 ENE 1001,7 4,3 0,4
23.01.2019 01:00:00 4,2 1,6 2,4 9,6 12,2 7 4 14 8 NE 1002,2 38 0,0
23.01.2019 00:00:00 5,0 1,8 3,3 9,7 12,2 8 4 16 9 NE 1003,2 50 0,0
22.01.2019 23:00:00 4,4 1,2 3,0 9,7 12,3 6 3 16 9 ENE 1003,5 23 0,0
22.01.2019 22:00:00 5,1 1,8 3,3 9,7 12,2 10 5 13 7 NE 1003,7 25 0,0
22.01.2019 21:00:00 6,8 2,1 4,5 9,7 12,3 6 3 16 9 NE 1003,9 27 0,0
22.01.2019 20:00:00 8,0 1,8 7,0 9,6 12,3 8 4 28 15 W 1004,3 45 0,0
22.01.2019 19:00:00 9,0 1,9 7,1 9,6 12,2 16 9 32 17 W 1004,3 52 0,0
22.01.2019 18:00:00 9,3 4,1 6,9 9,5 12,2 26 14 41 22 WSW 1004,1 35 0,0
22.01.2019 17:00:00 10,2 -0,6 8,3 9,4 12,2 11 6 27 15 W 1004,1 54 0,0
22.01.2019 16:00:00 11,4 -1,4 10,6 9,4 12,2 15 8 24 13 WNW 1004,4 60 0,0
22.01.2019 15:00:00 11,8 0,2 11,9 9,3 12,2 16 9 33 18 WNW 1004,8 60 0,0
22.01.2019 14:00:00 11,8 0,2 15,0 9,2 12,2 17 9 27 14 WNW 1005,5 60 0,0
22.01.2019 13:00:00 11,7 1,3 15,2 9,2 12,2 18 10 27 15 WNW 1006,5 60 0,0
22.01.2019 12:00:00 11,7 3,2 14,4 9,2 12,2 10 5 16 9 S 1007,3 20 0,0
22.01.2019 11:00:00 10,1 3,8 13,6 9,3 12,3 5 3 11 6 SW 1008,1 55 0,0
22.01.2019 10:00:00 6,8 3,8 6,9 9,4 12,3 6 3 10 6 NE 1008,2 33 0,0
22.01.2019 09:00:00 3,6 2,0 1,1 9,4 12,2 8 4 13 7 ENE 1008,2 46 0,0
22.01.2019 08:00:00 2,4 0,9 1,1 9,5 12,3 9 5 14 7 NE 1008,1 37 0,0
22.01.2019 07:00:00 3,3 1,8 1,5 9,5 12,2 9 5 14 8 NE 1008,1 53 0,0
22.01.2019 06:00:00 3,0 1,7 1,8 9,5 12,3 10 5 16 8 NE 1008,1 39 0,0
22.01.2019 05:00:00 3,0 1,8 1,9 9,5 12,3 11 6 14 8 ENE 1008,3 28 0,0
22.01.2019 04:00:00 4,2 3,0 2,3 9,5 12,3 7 4 10 5 NE 1008,8 12 0,0
22.01.2019 03:00:00 4,7 3,4 3,0 9,5 12,2 6 4 14 8 NE 1009,5 21 0,0
22.01.2019 02:00:00 5,3 3,6 3,9 9,5 12,3 8 5 13 7 NE 1009,7 22 0,0
22.01.2019 01:00:00 5,7 4,5 4,4 9,5 12,3 9 5 11 6 NE 1009,9 11 0,0
22.01.2019 00:00:00 6,2 4,4 4,1 9,5 12,3 6 3 11 6 ENE 1010,4 8 0,0
21.01.2019 23:00:00 6,9 4,6 3,9 9,5 12,3 4 2 10 5 NNE 1010,4 13 0,0
21.01.2019 22:00:00 7,4 5,5 6,4 9,5 12,3 7 4 11 6 NE 1010,7 16 0,0
21.01.2019 21:00:00 7,9 5,7 6,5 9,5 12,3 3 2 9 5 NE 1010,7 8 0,0
21.01.2019 20:00:00 8,4 5,9 6,5 9,4 12,3 4 2 11 6 NNE 1010,4 12 0,0
21.01.2019 19:00:00 8,8 5,5 7,3 9,4 12,3 4 2 7 4 ENE 1010,3 22 0,0
21.01.2019 18:00:00 9,4 5,8 7,1 9,4 12,3 4 2 5 3 E 1010,0 33 0,0
21.01.2019 17:00:00 10,4 5,2 9,0 9,3 12,3 2 1 5 3 N 1010,0 56 0,0
21.01.2019 16:00:00 10,5 4,8 10,6 9,3 12,3 2 1 12 6 ESE 1010,1 41 0,0
21.01.2019 15:00:00 10,6 4,7 10,1 9,3 12,3 5 3 9 5 ESE 1010,1 35 0,2
21.01.2019 14:00:00 10,6 4,9 10,4 9,3 12,3 7 4 11 6 ESE 1010,3 15 0,0
21.01.2019 13:00:00 10,6 3,6 10,8 9,3 12,3 3 2 12 6 S 1010,8 34 0,0
21.01.2019 12:00:00 9,6 3,6 9,2 9,3 12,3 0 0 8 4 N 1010,9 39 0,0
21.01.2019 11:00:00 8,5 3,9 7,8 9,3 12,3 5 3 10 6 NNE 1011,4 44 0,0
21.01.2019 10:00:00 7,3 3,5 6,3 9,4 12,3 6 4 10 5 NE 1011,4 19 0,0
21.01.2019 09:00:00 6,2 2,6 5,1 9,4 12,3 8 4 16 8 NE 1011,3 46 0,0
21.01.2019 08:00:00 5,6 2,2 4,0 9,4 12,3 10 6 16 9 NNE 1011,1 57 0,0
21.01.2019 07:00:00 5,0 2,2 3,7 9,5 12,3 10 5 13 7 NE 1011,2 60 0,0
21.01.2019 06:00:00 5,5 2,1 4,4 9,5 12,3 8 4 16 9 NE 1011,0 60 0,0
21.01.2019 05:00:00 5,6 2,4 4,4 9,5 12,3 9 5 16 9 NE 1011,2 60 0,0
21.01.2019 04:00:00 5,1 2,4 4,4 9,5 12,3 11 6 16 9 NE 1011,5 46 0,0
21.01.2019 03:00:00 5,9 2,0 4,4 9,6 12,3 6 4 15 8 ENE 1012,0 47 0,0
21.01.2019 02:00:00 5,0 2,4 3,9 9,6 12,3 10 6 19 10 NE 1011,9 40 0,0
21.01.2019 01:00:00 4,9 2,3 4,0 9,6 12,3 9 5 13 7 NE 1012,1 36 0,0
21.01.2019 00:00:00 5,7 2,5 4,7 9,6 12,3 6 4 16 9 NE 1012,4 39 0,0
20.01.2019 23:00:00 5,9 2,4 4,4 9,6 12,3 8 5 14 7 NE 1012,3 31 0,0
20.01.2019 22:00:00 5,7 2,7 4,6 9,6 12,3 9 5 16 9 NE 1012,3 25 0,0
20.01.2019 21:00:00 6,4 3,0 5,3 9,6 12,3 9 5 13 7 NE 1012,4 21 0,0
20.01.2019 20:00:00 7,0 3,4 5,9 9,6 12,3 9 5 13 7 NE 1012,2 18 0,0
20.01.2019 19:00:00 7,7 3,9 5,9 9,5 12,3 7 4 11 6 NE 1012,2 18 0,0
20.01.2019 18:00:00 8,8 4,2 5,6 9,4 12,3 4 2 5 3 NE 1011,8 16 0,0
20.01.2019 17:00:00 10,2 3,2 7,8 9,4 12,3 2 1 4 2 SSE 1011,4 22 0,0
20.01.2019 16:00:00 11,1 2,4 11,5 9,3 12,3 3 2 12 7 SSE 1011,3 60 0,0
20.01.2019 15:00:00 11,8 3,0 12,5 9,3 12,3 10 6 17 9 SW 1011,3 60 0,0
20.01.2019 14:00:00 11,7 3,2 14,0 9,3 12,3 11 6 15 8 W 1011,4 60 0,0
20.01.2019 13:00:00 12,5 2,3 18,0 9,3 12,3 6 3 11 6 SW 1011,9 56 0,0
20.01.2019 12:00:00 12,3 1,9 14,7 9,3 12,3 3 1 10 5 NW 1012,7 60 0,0
20.01.2019 11:00:00 9,9 3,0 12,9 9,4 12,3 5 3 10 6 NE 1013,3 53 0,0
20.01.2019 10:00:00 6,5 2,4 6,7 9,4 12,3 7 4 18 10 NE 1013,2 44 0,0
20.01.2019 09:00:00 3,7 0,6 1,5 9,5 12,3 12 7 19 10 NE 1013,1 59 0,0
20.01.2019 08:00:00 2,6 0,0 1,2 9,5 12,3 13 7 18 10 NE 1012,7 57 0,0
20.01.2019 07:00:00 2,3 0,0 0,8 9,6 12,3 13 7 19 10 NE 1012,5 46 0,0
20.01.2019 06:00:00 2,5 0,2 1,1 9,7 12,3 10 6 18 10 NE 1012,6 48 0,0
20.01.2019 05:00:00 2,7 0,6 1,2 9,7 12,3 15 8 21 11 NNE 1012,6 48 0,0
20.01.2019 04:00:00 3,8 1,0 2,1 9,7 12,3 11 6 19 10 NNE 1012,8 50 0,0
20.01.2019 03:00:00 3,7 1,2 2,0 9,8 12,3 13 7 18 10 NE 1013,3 41 0,0
20.01.2019 02:00:00 3,8 1,5 2,5 9,8 12,3 13 7 19 10 NNE 1013,2 44 0,0
20.01.2019 01:00:00 4,1 1,8 3,0 9,8 12,3 10 5 13 7 NE 1013,4 26 0,0
20.01.2019 00:00:00 5,0 2,5 3,3 9,8 12,3 8 4 16 9 NNE 1013,7 27 0,0
19.01.2019 23:00:00 5,4 2,9 3,8 9,8 12,3 11 6 16 8 NE 1013,6 24 0,0
19.01.2019 22:00:00 6,5 3,1 4,9 9,8 12,3 7 4 16 9 NE 1013,8 26 0,0
19.01.2019 21:00:00 6,9 3,7 5,7 9,8 12,3 9 5 14 8 NE 1013,7 22 0,0
19.01.2019 20:00:00 7,6 4,0 6,4 9,8 12,3 8 4 17 9 NE 1013,6 28 0,0
19.01.2019 19:00:00 8,5 3,7 7,1 9,7 12,3 6 3 16 8 NE 1013,2 40 0,0
19.01.2019 18:00:00 8,9 3,9 7,1 9,7 12,3 6 3 10 5 ESE 1013,0 27 0,0
19.01.2019 17:00:00 10,7 3,9 9,3 9,6 12,3 4 2 13 7 SE 1012,9 43 0,0
19.01.2019 16:00:00 11,5 4,0 10,9 9,6 12,3 7 4 13 7 SW 1013,1 59 0,0
19.01.2019 15:00:00 12,9 3,5 13,9 9,5 12,3 8 4 12 7 SSW 1013,2 48 0,0
19.01.2019 14:00:00 12,4 2,3 15,1 9,5 12,3 8 4 11 6 SSW 1013,5 60 0,0
19.01.2019 13:00:00 11,3 3,3 14,9 9,5 12,3 3 2 7 4 W 1014,0 53 0,0
19.01.2019 12:00:00 10,6 4,7 11,8 9,6 12,3 4 2 8 5 NNE 1014,5 40 0,0
19.01.2019 11:00:00 9,2 5,2 10,6 9,6 12,3 5 3 10 6 NE 1015,1 52 0,0
19.01.2019 10:00:00 6,6 4,3 4,5 9,6 12,3 8 4 17 9 NNE 1014,8 46 0,0
19.01.2019 09:00:00 4,5 2,4 2,8 9,7 12,3 13 7 18 10 NE 1014,4 55 0,0
19.01.2019 08:00:00 4,1 2,0 2,9 9,7 12,3 14 8 22 12 NNE 1014,1 60 0,0
19.01.2019 07:00:00 4,6 2,6 3,6 9,7 12,3 9 5 18 10 NE 1013,9 60 0,0
19.01.2019 06:00:00 4,7 2,9 3,3 9,8 12,3 13 7 17 9 NNE 1013,7 58 0,0
19.01.2019 05:00:00 4,4 2,7 3,0 9,8 12,3 12 6 18 10 NE 1013,9 44 0,0
19.01.2019 04:00:00 4,8 3,3 3,1 9,8 12,3 9 5 16 9 NE 1014,3 35 0,0
19.01.2019 03:00:00 5,6 4,1 3,6 9,9 12,3 9 5 13 7 NNE 1014,6 41 0,0
19.01.2019 02:00:00 6,1 4,3 4,9 9,9 12,3 6 4 14 7 NNE 1014,5 54 0,0
19.01.2019 01:00:00 6,0 4,2 5,4 9,9 12,3 9 5 14 8 NNE 1014,8 37 0,0
19.01.2019 00:00:00 6,0 4,6 5,3 10,0 12,3 6 3 14 7 NE 1015,1 6 1,2
18.01.2019 23:00:00 6,2 4,5 5,4 10,0 12,3 8 4 22 12 NE 1015,0 6 2,0
18.01.2019 22:00:00 6,4 4,6 5,4 10,0 12,3 13 7 24 13 NNE 1014,6 4,1 1,4
18.01.2019 21:00:00 6,7 4,0 5,5 10,0 12,3 13 7 24 13 E 1014,2 6 1,8
18.01.2019 20:00:00 6,9 4,2 5,2 10,0 12,3 7 4 15 8 ENE 1014,2 7 1,4
18.01.2019 19:00:00 7,5 2,6 5,4 9,9 12,3 7 4 18 10 NE 1014,1 9 0,2
18.01.2019 18:00:00 8,6 1,7 5,8 9,9 12,3 8 4 21 11 ESE 1013,4 30 0,0
18.01.2019 17:00:00 10,5 1,6 8,3 9,8 12,3 11 6 20 11 S 1013,2 47 0,0
18.01.2019 16:00:00 12,7 1,7 10,7 9,8 12,3 10 5 18 10 SW 1013,2 20 0,0
18.01.2019 15:00:00 11,5 1,4 10,8 9,7 12,3 6 4 22 12 S 1013,1 50 0,0
18.01.2019 14:00:00 12,6 2,2 16,9 9,7 12,3 18 10 27 14 WSW 1013,2 48 0,0
18.01.2019 13:00:00 12,9 3,3 19,6 9,7 12,3 16 9 25 13 SW 1013,2 20 0,0
18.01.2019 12:00:00 12,6 3,3 13,7 9,7 12,3 11 6 24 13 SW 1013,5 20 0,0

tt = Température de l'air
td = dewpoint
tt 5cm = Température de l'air 5cm
tt -20cm = Température de l'air -20cm
tt -100cm = Température de l'air -100cm
ff = Vitesse du vent
fx = gusts
dd = Direction du vent
ppp = reduced air pressure
vv = visibility
rr = Quantités de précipitations

stations d'obs. à proximité